STARLINK-36809, 67929

Orbit data source: Space-Track

STARLINK-36809, 67929 is a payload satellite owned by SpaceX/Seattle (US) in LEO that was launched on Sun, 22 Feb 2026 UTC via an FALCON 9 launch vehicle from the Air Force Eastern Test Range (AFETR). Payload-class satellites include a variety of spacecraft equipped with specific instruments for various scientific and technological missions. These include communications satellites like Starlink; space stations such as the ISS; scientific satellites like the Hubble; Earth observation satellites from companies like Planet Labs, Umbra, and HawkEye 360; GPS; miniature CubeSats for education and research; and military/defense satellites.

Loading next visibility...
Identifier
67929, 2026-036AB
Orbit
LEO
Country
Flag of USUS
Related business
Manufacturer
SpaceX/Seattle
Mission
Operational spacecraft
Bus & Motor
STARLINK V2MO, Unknown motor
Mass
575 kg wet, ~530 kg dry
Launch date (UTC)
2026-02-22 (2 months ago)
Launch vehicle
FALCON 9
Launch site
Air Force Eastern Test Range (AFETR)
Object type
Payload
Rocket body
Debris
Shape & HBR
Unknown shape, 17.7 m
Radar Cross Section
RCS unknown

Expand to show TLE details & history
Last TLE update: 12 hours ago

TLE from 12 hours ago
0 STARLINK-36809
1 67929U 26036AB  26104.19280792  .00007703  00000-0  28911-3 0  9992
2 67929  43.0008  44.5933 0001439 269.8466  90.2221 15.27586951  9156
Epoch: 2026-04-14T04:37Z
TLE epoch observation values (Epoch: 2026-04-14T04:37:38.604Z)
Latitude
0.00001°
Longitude
132.80988°
Altitude
482.808 km
Speed
7.626 km/s
True Right ascension
02h 58m 22s
True Declination
0° 00' 00"
Sunlit
Object was in daylight at epoch
Visualization orbit readout
Latitude
Unknown
Longitude
Unknown
Altitude
Unknown
Speed
Unknown
Apparent Right ascension
Unknown
Apparent Declination
Unknown
Sunlit
N/A
Visualization observer readout
Local Sidereal Time
23:14:07
Azimuth
Unknown
Elevation
Unknown
Doppler factor
Unknown
Orbital elements
Apogee altitude
485.961 km
Perigee altitude
483.986 km
Semi-major axis
6,863.11 km
Eccentricity
0.00014
Inclination
43.0008°
RAAN
44.5933°
Arg. of periapsis
269.8466°
True anomaly
90.23859°
Mean anomaly
90.2221°
Eccentric anomaly
90.23034°
Mean motion
3.81735 °/min
Orbital period
94.31 mins
BSTAR
0.00028911
Loading maneuver chart data...
Computing Atmospheric mass density...
Loading historical data...
Loading historical data...
Loading historical data...
Loading historical data...
Loading historical data...
Loading historical data...
Loading historical data...

Documentation

Showing up to 5 results
|